UAL278 KEWR-SKBO

Flight info

Callsign UAL278
Flight time N/A
Altitude 36000
Route EWR5 ELVAE DCT RBV Q22 BBOBO DCT GEARS Q111 ZORDO Q107 GARIC AR3 JAZZI AR24 BRATZ/N0477F380 AR24 URSUS/N0480F390 UP406 AKPEK DCT GRUDE GRUDE5W
Aircraft B772/H-SDE2E3FGHIJ5LORVWXY/LB1D1

Departure

Time 2026-05-04 17:37
Airport Newark Liberty International Airport (KEWR)

Arrival

Time N/A
Airport El Dorado International Airport (SKBO)
Time Latitude Longitude Altitude Speed Heading
2026-05-04 16:19 40.69742 -74.17621 22 ft 0 kts 135°
2026-05-04 17:26 40.69746 -74.17627 25 ft 2 kts 135°
2026-05-04 17:26 40.69774 -74.17664 24 ft 2 kts 131°
2026-05-04 17:27 40.69777 -74.17699 24 ft 2 kts 56°
2026-05-04 17:27 40.69769 -74.17712 24 ft 0 kts 38°
2026-05-04 17:31 40.69832 -74.17643 24 ft 8 kts 40°
2026-05-04 17:32 40.69947 -74.17498 24 ft 12 kts 43°
2026-05-04 17:33 40.70101 -74.17361 24 ft 5 kts 27°
2026-05-04 17:33 40.70118 -74.17323 24 ft 6 kts 83°
2026-05-04 17:34 40.70101 -74.17007 24 ft 13 kts 95°
2026-05-04 17:34 40.70094 -74.16892 24 ft 11 kts 95°
2026-05-04 17:35 40.70073 -74.16590 24 ft 10 kts 95°
2026-05-04 17:35 40.70063 -74.16430 24 ft 7 kts 95°
2026-05-04 17:35 40.70040 -74.16381 24 ft 5 kts 160°
2026-05-04 17:36 40.70006 -74.16385 24 ft 5 kts 196°
2026-05-04 17:36 40.69967 -74.16407 24 ft 8 kts 205°
2026-05-04 17:36 40.69764 -74.16541 24 ft 65 kts 206°
2026-05-04 17:36 40.69155 -74.16924 24 ft 128 kts 206°
2026-05-04 17:37 40.68194 -74.17520 87 ft 169 kts 206°
2026-05-04 17:37 40.67094 -74.18151 549 ft 179 kts 207°
2026-05-04 17:37 40.65900 -74.18532 1503 ft 171 kts 186°
2026-05-04 17:37 40.64820 -74.18297 2131 ft 149 kts 175°
2026-05-04 17:38 40.63844 -74.18165 2411 ft 136 kts 188°
2026-05-04 17:38 40.62952 -74.18435 2462 ft 132 kts 220°
2026-05-04 17:38 40.62226 -74.19229 2488 ft 139 kts 223°
2026-05-04 17:38 40.61459 -74.20083 2501 ft 153 kts 223°
2026-05-04 17:39 40.59653 -74.22089 2529 ft 186 kts 223°
2026-05-04 17:39 40.58604 -74.23251 2575 ft 207 kts 223°
2026-05-04 17:39 40.57437 -74.24545 2750 ft 228 kts 222°
2026-05-04 17:40 40.56173 -74.25909 2996 ft 246 kts 217°
2026-05-04 17:40 40.54575 -74.26775 3513 ft 256 kts 192°
2026-05-04 17:40 40.52781 -74.26658 4075 ft 266 kts 169°
2026-05-04 17:40 40.50996 -74.25859 4704 ft 269 kts 163°
2026-05-04 17:41 40.49253 -74.24976 5298 ft 272 kts 162°
2026-05-04 17:41 40.47487 -74.24086 5861 ft 275 kts 163°
2026-05-04 17:41 40.45692 -74.23190 6492 ft 276 kts 163°
2026-05-04 17:41 40.43905 -74.22304 7055 ft 280 kts 163°
2026-05-04 17:42 40.42078 -74.21398 7609 ft 283 kts 163°
2026-05-04 17:42 40.40201 -74.20468 8150 ft 288 kts 163°
2026-05-04 17:42 40.38338 -74.19546 8701 ft 291 kts 163°
2026-05-04 17:42 40.36426 -74.18599 9271 ft 293 kts 164°
2026-05-04 17:43 40.34519 -74.17656 9769 ft 298 kts 164°
2026-05-04 17:43 40.32554 -74.16732 10238 ft 302 kts 169°
2026-05-04 17:43 40.30447 -74.16205 10365 ft 316 kts 180°
2026-05-04 17:43 40.28215 -74.16245 10476 ft 330 kts 192°
2026-05-04 17:44 40.25960 -74.16967 10560 ft 343 kts 203°
2026-05-04 17:44 40.23612 -74.17979 10790 ft 361 kts 201°
2026-05-04 17:44 40.21158 -74.18858 11242 ft 371 kts 199°
2026-05-04 17:44 40.18660 -74.19667 11923 ft 375 kts 198°
2026-05-04 17:45 40.16101 -74.20467 12610 ft 378 kts 198°
2026-05-04 17:45 40.13536 -74.21252 13256 ft 383 kts 198°
2026-05-04 17:45 40.10942 -74.22041 13919 ft 387 kts 198°
2026-05-04 17:45 40.08288 -74.22842 14606 ft 391 kts 198°
2026-05-04 17:46 40.05646 -74.23637 15286 ft 395 kts 198°
2026-05-04 17:46 40.02962 -74.24483 15915 ft 398 kts 201°
2026-05-04 17:46 40.00388 -74.25796 16515 ft 397 kts 211°
2026-05-04 17:46 39.98030 -74.27664 17108 ft 397 kts 220°
2026-05-04 17:47 39.95808 -74.29763 17741 ft 400 kts 220°
2026-05-04 17:47 39.93538 -74.31930 18437 ft 402 kts 220°
2026-05-04 17:47 39.91280 -74.34086 18988 ft 407 kts 220°
2026-05-04 17:47 39.88989 -74.36269 19474 ft 413 kts 220°
2026-05-04 17:48 39.86652 -74.38493 20002 ft 417 kts 220°
2026-05-04 17:48 39.84301 -74.40728 20568 ft 421 kts 220°
2026-05-04 17:48 39.81973 -74.43010 21112 ft 423 kts 225°
2026-05-04 17:48 39.79831 -74.45670 21538 ft 427 kts 230°
2026-05-04 17:49 39.77772 -74.48404 22072 ft 429 kts 230°
2026-05-04 17:49 39.75691 -74.51173 22604 ft 432 kts 230°
2026-05-04 17:49 39.73590 -74.53964 23064 ft 436 kts 230°
2026-05-04 17:49 39.71456 -74.56795 23508 ft 440 kts 230°
2026-05-04 17:50 39.69295 -74.59657 23968 ft 444 kts 230°
2026-05-04 17:50 39.67126 -74.62528 24435 ft 447 kts 230°
2026-05-04 17:50 39.64932 -74.65426 24888 ft 451 kts 230°
2026-05-04 17:50 39.62748 -74.68310 25383 ft 453 kts 230°
2026-05-04 17:51 39.60528 -74.71236 25868 ft 455 kts 230°
2026-05-04 17:51 39.58288 -74.74186 26321 ft 457 kts 230°
2026-05-04 17:51 39.56052 -74.77129 26721 ft 461 kts 230°
2026-05-04 17:51 39.53799 -74.80090 27114 ft 464 kts 230°
2026-05-04 17:52 39.51507 -74.83101 27562 ft 466 kts 230°
2026-05-04 17:52 39.49239 -74.86076 27959 ft 469 kts 230°
2026-05-04 17:52 39.46952 -74.89073 28365 ft 472 kts 230°
2026-05-04 17:52 39.44647 -74.92090 28797 ft 473 kts 230°
2026-05-04 17:53 39.42329 -74.95122 29164 ft 476 kts 230°
2026-05-04 17:53 39.40002 -74.98164 29541 ft 479 kts 230°
2026-05-04 17:53 39.37637 -75.01249 30059 ft 479 kts 230°
2026-05-04 17:53 39.35323 -75.04263 30664 ft 476 kts 231°
2026-05-04 17:54 39.32996 -75.07294 31196 ft 474 kts 231°
2026-05-04 17:54 39.30677 -75.10310 31665 ft 472 kts 231°
2026-05-04 17:54 39.28336 -75.13259 32122 ft 472 kts 228°
2026-05-04 17:54 39.25894 -75.16106 32569 ft 471 kts 227°
2026-05-04 17:55 39.23461 -75.18922 32997 ft 470 kts 227°
2026-05-04 17:55 39.21030 -75.21742 33405 ft 468 kts 228°
2026-05-04 17:55 39.18652 -75.24503 33822 ft 466 kts 227°
2026-05-04 17:55 39.16232 -75.27315 34195 ft 464 kts 228°
2026-05-04 17:56 39.13859 -75.30073 34530 ft 462 kts 228°
2026-05-04 17:56 39.11467 -75.32854 34845 ft 461 kts 228°
2026-05-04 17:56 39.09088 -75.35617 35207 ft 459 kts 227°
2026-05-04 17:56 39.06741 -75.38341 35609 ft 456 kts 227°
2026-05-04 17:57 39.04250 -75.40842 35902 ft 460 kts 219°
2026-05-04 17:57 39.01408 -75.42889 35956 ft 468 kts 210°
2026-05-04 17:57 38.95099 -75.45141 35951 ft 478 kts 193°
2026-05-04 17:58 38.88443 -75.46039 35957 ft 484 kts 192°
2026-05-04 17:58 38.81751 -75.46925 35955 ft 482 kts 192°
2026-05-04 17:59 38.75086 -75.47822 35971 ft 481 kts 192°
2026-05-04 18:00 38.65076 -75.49175 35963 ft 481 kts 192°
2026-05-04 18:00 38.58437 -75.50073 35993 ft 481 kts 192°
2026-05-04 18:01 38.51859 -75.50961 35998 ft 480 kts 192°
2026-05-04 18:01 38.45204 -75.51861 35989 ft 482 kts 192°
2026-05-04 18:02 38.35367 -75.53719 35970 ft 473 kts 204°
2026-05-04 18:02 38.29522 -75.57241 36003 ft 459 kts 219°
2026-05-04 18:03 38.24223 -75.61822 36008 ft 456 kts 220°